DELTA 1 DEB, 10763

Orbit data source: Space-Track

DELTA 1 DEB, 10763 is space debris in SSO originally from a launch on Thu, 29 Jul 1976 UTC launched from the Air Force Western Test Range (AFWTR). Debris objects in space refer to the collection of defunct objects orbiting the Earth. Examples of debris include non-operational satellites, rocket bodies, and fragments generated from explosions, collisions, or faulty payload assembly.

Loading next visibility...
Identifier
10763, 1976-077BL
Orbit
SSO
Country
Flag of USUS
Related business
Manufacturer
Unknown
Mission
Spacecraft
Bus & Motor
Unknown
Mass
Unknown
Launch date (UTC)
1976-07-29 (49 years ago)
Launch vehicle
Unknown
Launch site
Air Force Western Test Range (AFWTR)
Object type
Payload
Rocket body
Debris
Shape & HBR
Unknown shape, 0.1 m
Radar Cross Section
Small (<0.1 m²)

Expand to show TLE details & history
Last TLE update: 19 hours ago

TLE from 19 hours ago
0 DELTA 1 DEB
1 10763U 76077BL  25291.18031168  .00000002  00000-0  37818-3 0  9993
2 10763 102.2096 257.2599 0046338 106.4397 275.6425 12.33838703216639
Epoch: 2025-10-18T04:19Z
TLE epoch observation values (Epoch: 2025-10-18T04:19:38.929Z)
Latitude
21.05292°
Longitude
160.67824°
Altitude
1,531.639 km
Speed
7.103 km/s
True Right ascension
16h 50m 01s
True Declination
20° 56' 57"
Sunlit
Object was in daylight at epoch
Visualization orbit readout
Latitude
Unknown
Longitude
Unknown
Altitude
Unknown
Speed
Unknown
Apparent Right ascension
Unknown
Apparent Declination
Unknown
Sunlit
N/A
Visualization observer readout
Local Sidereal Time
18:08:48
Azimuth
Unknown
Elevation
Unknown
Doppler factor
Unknown
Orbital elements
Apogee altitude
1,567.072 km
Perigee altitude
1,493.779 km
Semi-major axis
7,908.562 km
Eccentricity
0.00463
Inclination
102.2096°
RAAN
257.2599°
Arg. of periapsis
106.4397°
True anomaly
275.11378°
Mean anomaly
275.6425°
Eccentric anomaly
275.37817°
Mean motion
3.08601 °/min
Orbital period
116.66 mins
BSTAR
0.00037818
Loading maneuver chart data...
Computing Atmospheric mass density...
Loading historical data...
Loading historical data...
Loading historical data...
Loading historical data...
Loading historical data...
Loading historical data...
Loading historical data...

Documentation

Showing up to 5 results
|